SCP
0 0 0 0 0 -0 0 0 0 0 0 0 0 0 -0 -0 0 0 0 0 -0 0 0 0 -0 0 0 0 1 3 2 2 3 3 2 2 1 1 1 1 0 0 0 0
-0 -0 0 -0 -0 0 0 0 0 0 0 -0 0 -0 -0 -0 -0 -0 -0 -0 -0 0 0 0 0 0 0 0 0 4 2 2 2 2 2 1 1 1 0 0 0 0 0 0
0 0 0 -0 0 0 0 0 0 0 0 0 -0 -0 -0 -0 -0 -0 0 -0 -0 0 0 0 0 0 0 0 0 1 2 1 1 1 1 0 0 0 0 0 0 0 0 0
0 0 0 0 0 0 0 0 0 0 0 0 0 0 -0 -0 -0 0 -0 0 -0 0 0 0 0 0 0 0 0 1 1 1 1 1 0 0 0 0 0 0 0 0 0 0
0 0 0 0 0 0 0 0 0 0 0 0 -0 -0 0 -0 0 0 0 0 -0 0 0 0 0 0 0 0 0 1 1 1 1 0 0 0 0 0 0 0 0 0 0 0
0 0 0 0 0 0 0 0 0 0 0 -0 -0 -0 0 -0 -0 -0 -0 0 0 0 0 0 0 0 0 0 0 1 1 1 0 0 0 0 0 0 0 0 0 0 0 0
0 0 0 0 0 0 0 0 0 0 -0 -0 -0 -0 0 -0 0 -0 -0 -0 -0 0 0 0 0 0 -0 0 0 1 0 0 0 0 0 0 0 0 0 0 0 0 0 0
0 0 0 0 0 0 0 0 0 0 -0 -0 -0 0 -0 -0 -0 -0 -0 -0 0 0 0 0 -0 -0 0 0 0 0 0 0 0 0 0 0 0 0 0 0 0 0 0 0
0 0 0 0 0 0 0 0 0 -0 -0 0 0 -0 -0 -0 -0 -0 -0 -0 0 0 0 -0 -0 -0 0 0 0 0 0 0 0 0 0 0 0 0 0 0 0 0 0 0
0 0 0 0 0 0 0 0 0 -0 0 0 -0 -0 -0 -0 -0 -0 -0 0 0 0 -0 -0 0 0 0 0 0 0 0 0 0 0 0 0 0 0 0 0 0 0 0 0
0 0 0 0 0 0 0 0 -0 -0 -0 -0 -0 -0 0 0 -0 -0 -0 -0 -0 0 0 0 0 0 0 0 0 0 0 0 0 0 0 0 0 0 0 0 0 0 0 0
0 0 0 0 0 0 0 -0 -0 -0 -0 -0 -0 0 0 -0 -0 -0 0 -0 0 0 0 0 0 0 0 -0 0 0 0 0 0 0 0 0 0 0 -0 0 0 0 0 0
0 0 0 0 0 0 -0 -0 -0 -0 -0 -0 -0 0 0 -0 -0 -0 -0 -0 0 0 0 0 0 0 0 0 0 0 0 0 0 0 0 0 0 0 0 0 -0 -0 0 0
0 0 0 0 0 -0 -0 -0 -0 -0 -0 0 0 0 0 -0 -0 0 0 0 0 -0 0 0 0 0 0 0 0 0 0 0 0 0 0 0 0 0 0 0 0 0 0 0
0 0 0 -0 -0 -0 0 -0 0 0 0 0 0 0 0 0 -0 0 0 0 0 0 0 0 0 0 0 0 0 0 0 0 0 0 0 0 0 0 0 0 0 0 0 0
0 0 0 -0 -0 -0 0 0 0 0 0 0 0 0 0 0 0 0 0 -0 0 0 0 0 0 0 0 0 0 0 0 0 0 0 0 0 0 0 0 0 0 0 0 0
0 0 0 -0 -0 0 0 0 0 0 0 0 0 0 0 0 0 0 0 0 0 0 0 0 0 0 0 0 0 0 0 0 0 0 0 0 0 0 0 0 0 0 0 0
0 -0 0 0 0 0 0 0 0 0 0 0 0 0 0 0 0 0 0 0 0 0 0 0 0 0 0 0 0 0 0 0 0 0 0 0 0 0 0 0 0 0 0 0
0 -0 -0 0 0 0 0 0 0 0 0 0 0 0 0 0 0 0 0 0 0 0 0 0 0 0 0 0 0 0 0 0 -0 0 0 -0 0 0 0 0 0 0 0 0
0 0 -0 0 0 0 0 0 0 0 0 0 0 0 0 0 -0 0 0 0 0 0 0 0 0 0 0 0 0 0 0 0 0 0 0 0 0 0 0 0 0 0 0 0
0 -0 -0 0 0 0 0 0 0 0 0 0 0 0 0 0 0 0 0 0 0 0 0 0 0 0 0 0 0 0 0 0 0 0 0 0 0 0 0 0 0 0 0 0
0 0 -0 -0 0 0 0 0 0 0 0 0 0 0 0 0 0 0 0 0 0 0 0 0 0 0 0 0 0 0 0 0 0 0 0 0 0 0 0 0 0 0 0 0
0 0 -0 -0 -0 0 0 0 0 0 0 0 -0 -0 0 0 0 0 0 0 0 0 0 0 0 0 0 0 0 0 0 0 0 0 0 0 0 0 0 0 0 0 0 0
0 0 0 -0 -0 -0 0 0 0 0 0 0 0 0 -0 -0 0 0 0 0 0 0 0 0 0 0 0 0 0 0 0 0 0 0 0 0 0 0 0 0 0 0 0 0
-0 -0 0 0 -0 -0 -0 0 0 0 0 0 0 0 0 0 0 0 0 0 0 0 0 0 0 0 0 0 0 0 0 0 0 0 0 0 0 0 0 0 0 0 0 0
0 0 0 0 -0 -0 -0 -0 0 0 0 0 0 0 0 0 0 0 0 0 0 0 0 0 0 0 0 0 0 0 0 0 0 0 0 0 0 0 0 0 0 0 0 0
0 0 0 -0 -0 -0 -0 -0 -0 -0 0 0 0 0 0 -0 0 0 0 0 0 0 0 0 0 0 0 0 0 0 0 0 0 0 0 0 0 0 0 -0 0 0 0 0
Wind_Speed_500mb
20 28 26 34 41 38 34 39 27 35 35 42 32 15 17 35 50 56 39 44 55 75 81 55 42 51 61 42 19 15 42 53 54 53 45 40 45 45 45 52 52 55 53 49
17 28 34 41 42 36 41 37 33 31 34 23 12 21 30 38 46 52 37 36 37 72 72 59 54 59 73 42 27 22 42 53 49 44 43 48 52 52 53 57 57 57 53 44
17 1 13 23 22 19 10 9 6 16 32 10 20 23 37 48 55 51 33 49 65 74 67 69 52 62 74 39 25 37 47 44 42 44 50 54 55 58 62 59 61 53 43 38
9 7 9 8 5 1 5 20 21 26 26 6 15 45 53 58 48 37 63 62 70 64 65 69 53 56 70 39 31 44 52 49 50 54 57 58 60 60 67 62 50 50 40 39
5 6 15 14 7 7 4 17 22 19 9 20 39 51 43 30 31 57 61 66 66 65 61 64 41 49 54 25 29 51 56 56 61 62 65 56 61 66 62 66 51 44 44 39
3 8 10 10 6 6 2 15 7 6 15 21 38 31 30 48 70 66 73 71 67 56 52 44 40 44 36 32 19 50 60 67 69 70 59 56 65 62 55 50 48 49 39 32
12 10 13 6 10 14 5 8 9 32 39 36 29 39 73 74 69 65 72 73 54 47 42 41 44 43 34 22 20 36 64 71 69 67 61 61 61 58 55 54 46 40 34 29
5 6 14 8 2 5 17 48 46 47 57 57 67 66 69 65 67 81 73 63 53 50 42 45 38 38 31 39 40 20 59 68 71 59 63 66 63 57 52 45 41 38 32 28
11 12 12 14 23 56 54 38 50 60 69 65 62 64 65 67 67 72 72 65 53 49 45 37 27 34 32 49 49 22 58 64 62 66 66 60 62 57 50 44 42 38 32 30
7 9 11 34 61 36 51 48 60 67 65 63 65 63 66 67 65 70 71 63 51 43 36 24 9 16 38 57 53 57 72 70 71 67 63 62 48 51 47 46 42 37 33 32
12 22 30 39 30 62 60 60 75 69 67 58 65 66 66 67 65 67 71 59 48 43 34 25 21 38 42 77 51 77 68 65 65 60 62 59 52 48 41 38 35 33 24 19
16 27 39 33 48 53 58 59 77 63 68 64 61 68 66 68 70 67 59 52 42 16 26 23 13 45 65 75 78 70 64 57 61 59 65 56 48 47 41 37 34 22 16 13
24 45 51 54 46 70 55 76 63 57 60 68 63 60 61 62 56 46 31 30 22 5 18 3 19 49 58 69 66 59 62 63 60 59 60 56 49 47 49 43 35 26 21 17
49 31 33 36 58 74 68 47 49 50 49 50 49 52 49 44 40 27 23 11 6 22 14 11 33 49 56 62 67 63 60 59 58 60 59 52 49 48 46 47 45 37 29 21
30 29 42 51 74 54 46 39 46 47 49 48 47 41 35 31 21 15 7 5 22 23 21 16 48 57 58 60 59 60 59 57 54 50 44 41 41 41 43 47 46 44 40 33
30 33 36 58 52 47 41 46 42 47 47 46 46 40 28 14 8 8 6 11 13 25 20 24 50 54 60 63 55 53 49 46 42 38 34 31 33 38 43 46 51 43 39 34
28 35 50 60 46 47 42 43 34 33 40 43 38 27 12 7 22 14 12 25 34 34 25 31 47 53 59 53 45 48 46 41 36 34 32 29 34 39 44 52 51 43 38 36
20 38 46 46 49 46 46 38 35 33 26 32 28 18 11 19 23 21 25 26 38 37 42 42 43 48 51 45 43 43 41 36 27 30 34 32 38 42 47 50 48 47 44 41
25 37 47 43 48 41 40 39 35 32 29 25 21 22 16 17 23 25 34 39 47 46 40 35 42 43 43 40 43 42 39 31 31 29 36 38 39 40 41 42 43 44 48 42
24 33 48 46 54 46 41 39 32 33 28 22 17 18 22 26 28 33 45 39 36 36 33 35 35 41 44 41 40 32 33 29 37 36 40 41 39 37 36 38 44 52 50 43
23 33 48 50 54 50 50 45 41 36 32 27 23 28 32 34 33 43 49 49 39 29 28 32 29 32 33 35 38 34 34 39 42 41 41 45 43 43 44 43 51 56 52 44
21 26 43 49 50 44 42 36 36 35 28 31 32 30 39 46 52 56 53 49 41 35 31 22 23 29 38 40 41 39 43 43 38 51 48 53 50 47 51 53 56 55 50 47
20 15 28 40 39 38 38 40 39 42 44 38 44 45 43 43 55 65 53 37 32 34 31 30 25 27 39 37 43 50 43 42 40 47 58 57 53 53 52 60 63 59 52 48
20 11 20 34 35 47 47 40 45 49 48 43 39 40 43 43 51 51 51 41 39 35 35 36 28 21 29 36 39 38 38 37 47 59 63 57 52 54 56 61 59 52 49 46
17 13 16 28 39 45 44 39 42 47 52 54 51 48 46 44 48 47 48 44 40 36 38 32 26 24 28 37 34 33 41 46 47 56 62 62 64 61 62 63 56 49 40 40
19 14 15 21 31 35 40 38 43 47 48 53 56 53 47 46 46 46 48 47 46 45 44 38 32 28 29 31 36 39 41 42 44 48 52 55 58 59 62 63 60 56 54 52
24 12 17 18 23 24 29 34 37 41 45 48 50 52 49 47 45 45 46 49 49 46 43 39 37 34 34 33 34 37 41 43 47 50 52 55 55 56 58 59 59 58 60 64
Wind_Direction_500mb
241 261 275 268 270 271 258 258 250 273 260 280 283 297 321 340 342 340 352 348 333 320 329 322 344 347 336 320 278 247 227 213 210 205 205 216 208 199 196 199 194 184 180 184
267 269 260 269 267 259 267 262 255 269 275 270 312 316 331 332 324 313 311 330 320 315 333 333 344 344 342 318 284 237 213 199 195 198 204 197 183 186 187 181 178 174 171 179
280 322 300 280 257 210 248 213 252 281 275 308 327 329 318 310 304 296 322 323 317 316 324 337 329 337 335 314 259 206 208 212 214 214 200 189 187 180 176 178 169 168 169 179
286 354 257 257 293 321 279 280 273 279 281 329 318 301 299 298 299 310 320 317 315 310 316 331 325 325 322 300 274 214 219 217 217 204 185 178 179 178 172 166 173 168 177 187
233 210 294 287 201 197 159 280 265 257 310 315 314 306 290 292 294 305 302 304 302 306 312 322 312 321 312 275 241 205 209 211 205 189 168 163 169 169 171 165 169 176 180 183
218 247 257 247 166 135 99 271 104 303 284 300 316 304 295 309 309 301 301 302 308 307 305 310 311 309 289 247 310 198 199 201 188 169 163 166 163 164 167 168 170 174 178 185
245 259 276 284 120 56 245 289 256 305 300 300 287 280 290 300 295 297 298 306 307 303 300 306 302 290 260 235 145 187 203 192 175 163 158 164 165 165 164 166 170 175 183 190
240 244 279 162 108 261 294 298 309 307 303 298 291 293 294 297 297 301 302 304 310 313 312 309 308 276 248 207 145 157 167 175 157 159 161 164 162 164 168 178 182 182 187 187
195 228 234 204 268 297 291 303 312 304 301 296 297 295 295 298 294 294 299 303 308 311 307 323 320 262 222 183 203 215 165 152 154 160 160 164 166 167 177 183 186 185 187 191
304 280 280 302 308 307 305 310 321 301 299 296 294 295 293 292 293 298 302 298 304 311 321 316 337 183 165 173 170 160 162 153 157 163 165 166 174 178 182 185 188 186 188 189
260 280 310 300 303 321 302 308 318 305 298 297 299 295 294 292 292 289 290 294 302 312 312 304 277 268 160 179 179 168 159 163 165 169 170 170 175 182 189 190 187 182 185 178
285 294 294 289 312 329 310 310 311 308 308 305 300 298 299 293 292 292 293 297 301 297 279 290 92 157 165 171 168 166 166 167 169 173 172 175 181 179 182 180 180 177 158 131
284 295 292 301 314 323 310 310 311 309 307 306 306 306 304 301 306 303 291 295 295 175 175 116 126 161 164 165 167 164 159 167 167 171 176 179 180 177 175 179 179 174 171 153
306 306 301 311 319 317 310 309 314 311 311 312 308 307 305 309 303 299 288 280 171 143 215 147 137 151 159 165 166 160 169 166 170 174 177 180 181 180 179 175 172 171 163 154
317 313 311 316 315 320 325 331 323 323 319 322 320 320 320 325 346 300 324 127 158 168 162 130 148 161 166 162 162 163 163 167 170 175 176 179 182 183 183 183 174 160 154 152
309 323 317 327 326 334 338 333 331 328 323 332 326 332 335 348 61 48 285 126 177 181 163 146 159 155 166 162 159 157 162 162 166 167 169 172 176 180 184 180 166 161 158 158
317 334 337 333 342 343 338 339 338 326 327 327 333 341 359 67 81 85 138 121 148 153 144 151 153 161 168 166 160 157 156 153 156 156 158 161 163 167 169 165 163 162 156 160
343 358 348 334 339 342 341 347 340 339 346 325 334 356 54 84 90 93 133 144 136 138 139 135 148 161 166 166 161 158 155 157 162 156 158 153 156 164 168 168 168 164 159 160
353 2 359 347 353 357 351 347 350 349 355 358 11 25 47 84 96 100 132 148 132 129 122 132 152 159 165 165 168 167 162 155 151 156 161 151 152 162 170 171 169 162 158 158
357 4 7 8 3 6 3 4 10 12 18 29 42 50 67 91 102 97 102 126 123 115 117 127 153 163 170 169 178 169 163 163 153 145 146 151 150 157 166 170 162 158 159 163
349 3 9 16 17 11 12 12 16 23 28 45 63 74 81 79 92 99 102 108 94 119 143 149 153 166 170 176 173 181 170 158 155 151 144 149 148 150 156 155 157 161 161 164
339 4 11 15 18 16 22 25 35 43 49 60 74 86 90 86 83 87 103 88 87 130 166 176 174 171 168 174 168 164 172 173 163 159 157 159 158 155 158 163 161 161 165 169
317 349 15 22 23 24 32 39 49 54 54 50 66 75 75 76 81 87 100 96 108 108 120 125 138 160 161 173 176 171 174 180 176 172 169 171 173 171 171 168 166 164 165 168
349 340 13 24 30 30 31 37 48 55 61 61 64 71 80 76 81 88 97 103 99 109 116 117 127 155 159 158 161 168 171 177 172 170 171 173 175 174 173 174 173 170 169 170
32 30 20 22 32 35 34 43 53 55 57 63 65 68 75 84 87 90 94 102 117 115 101 100 113 137 156 155 156 156 161 166 170 171 173 173 168 168 170 173 176 173 172 170
28 19 26 29 36 41 38 46 55 53 53 56 60 62 62 70 80 87 92 93 93 95 97 100 106 118 131 140 145 149 156 158 158 161 166 165 166 167 168 166 168 168 164 164
42 36 22 30 35 45 49 51 55 56 54 52 59 64 67 73 78 85 91 92 90 87 88 92 95 96 103 112 122 132 139 145 151 156 159 158 159 161 159 157 155 151 147 143
Wind_Speed_850mb
20 28 26 34 41 38 34 39 27 35 35 42 32 15 17 35 50 56 39 44 55 75 81 55 42 51 61 42 19 15 42 53 54 53 45 40 45 45 45 52 52 55 53 49
17 28 34 41 42 36 41 37 33 31 34 23 12 21 30 38 46 52 37 36 37 72 72 59 54 59 73 42 27 22 42 53 49 44 43 48 52 52 53 57 57 57 53 44
17 1 13 23 22 19 10 9 6 16 32 10 20 23 37 48 55 51 33 49 65 74 67 69 52 62 74 39 25 37 47 44 42 44 50 54 55 58 62 59 61 53 43 38
9 7 9 8 5 1 5 20 21 26 26 6 15 45 53 58 48 37 63 62 70 64 65 69 53 56 70 39 31 44 52 49 50 54 57 58 60 60 67 62 50 50 40 39
5 6 15 14 7 7 4 17 22 19 9 20 39 51 43 30 31 57 61 66 66 65 61 64 41 49 54 25 29 51 56 56 61 62 65 56 61 66 62 66 51 44 44 39
3 8 10 10 6 6 2 15 7 6 15 21 38 31 30 48 70 66 73 71 67 56 52 44 40 44 36 32 19 50 60 67 69 70 59 56 65 62 55 50 48 49 39 32
12 10 13 6 10 14 5 8 9 32 39 36 29 39 73 74 69 65 72 73 54 47 42 41 44 43 34 22 20 36 64 71 69 67 61 61 61 58 55 54 46 40 34 29
5 6 14 8 2 5 17 48 46 47 57 57 67 66 69 65 67 81 73 63 53 50 42 45 38 38 31 39 40 20 59 68 71 59 63 66 63 57 52 45 41 38 32 28
11 12 12 14 23 56 54 38 50 60 69 65 62 64 65 67 67 72 72 65 53 49 45 37 27 34 32 49 49 22 58 64 62 66 66 60 62 57 50 44 42 38 32 30
7 9 11 34 61 36 51 48 60 67 65 63 65 63 66 67 65 70 71 63 51 43 36 24 9 16 38 57 53 57 72 70 71 67 63 62 48 51 47 46 42 37 33 32
12 22 30 39 30 62 60 60 75 69 67 58 65 66 66 67 65 67 71 59 48 43 34 25 21 38 42 77 51 77 68 65 65 60 62 59 52 48 41 38 35 33 24 19
16 27 39 33 48 53 58 59 77 63 68 64 61 68 66 68 70 67 59 52 42 16 26 23 13 45 65 75 78 70 64 57 61 59 65 56 48 47 41 37 34 22 16 13
24 45 51 54 46 70 55 76 63 57 60 68 63 60 61 62 56 46 31 30 22 5 18 3 19 49 58 69 66 59 62 63 60 59 60 56 49 47 49 43 35 26 21 17
49 31 33 36 58 74 68 47 49 50 49 50 49 52 49 44 40 27 23 11 6 22 14 11 33 49 56 62 67 63 60 59 58 60 59 52 49 48 46 47 45 37 29 21
30 29 42 51 74 54 46 39 46 47 49 48 47 41 35 31 21 15 7 5 22 23 21 16 48 57 58 60 59 60 59 57 54 50 44 41 41 41 43 47 46 44 40 33
30 33 36 58 52 47 41 46 42 47 47 46 46 40 28 14 8 8 6 11 13 25 20 24 50 54 60 63 55 53 49 46 42 38 34 31 33 38 43 46 51 43 39 34
28 35 50 60 46 47 42 43 34 33 40 43 38 27 12 7 22 14 12 25 34 34 25 31 47 53 59 53 45 48 46 41 36 34 32 29 34 39 44 52 51 43 38 36
20 38 46 46 49 46 46 38 35 33 26 32 28 18 11 19 23 21 25 26 38 37 42 42 43 48 51 45 43 43 41 36 27 30 34 32 38 42 47 50 48 47 44 41
25 37 47 43 48 41 40 39 35 32 29 25 21 22 16 17 23 25 34 39 47 46 40 35 42 43 43 40 43 42 39 31 31 29 36 38 39 40 41 42 43 44 48 42
24 33 48 46 54 46 41 39 32 33 28 22 17 18 22 26 28 33 45 39 36 36 33 35 35 41 44 41 40 32 33 29 37 36 40 41 39 37 36 38 44 52 50 43
23 33 48 50 54 50 50 45 41 36 32 27 23 28 32 34 33 43 49 49 39 29 28 32 29 32 33 35 38 34 34 39 42 41 41 45 43 43 44 43 51 56 52 44
21 26 43 49 50 44 42 36 36 35 28 31 32 30 39 46 52 56 53 49 41 35 31 22 23 29 38 40 41 39 43 43 38 51 48 53 50 47 51 53 56 55 50 47
20 15 28 40 39 38 38 40 39 42 44 38 44 45 43 43 55 65 53 37 32 34 31 30 25 27 39 37 43 50 43 42 40 47 58 57 53 53 52 60 63 59 52 48
20 11 20 34 35 47 47 40 45 49 48 43 39 40 43 43 51 51 51 41 39 35 35 36 28 21 29 36 39 38 38 37 47 59 63 57 52 54 56 61 59 52 49 46
17 13 16 28 39 45 44 39 42 47 52 54 51 48 46 44 48 47 48 44 40 36 38 32 26 24 28 37 34 33 41 46 47 56 62 62 64 61 62 63 56 49 40 40
19 14 15 21 31 35 40 38 43 47 48 53 56 53 47 46 46 46 48 47 46 45 44 38 32 28 29 31 36 39 41 42 44 48 52 55 58 59 62 63 60 56 54 52
24 12 17 18 23 24 29 34 37 41 45 48 50 52 49 47 45 45 46 49 49 46 43 39 37 34 34 33 34 37 41 43 47 50 52 55 55 56 58 59 59 58 60 64
Wind_Direction_850mb
241 261 275 268 270 271 258 258 250 273 260 280 283 297 321 340 342 340 352 348 333 320 329 322 344 347 336 320 278 247 227 213 210 205 205 216 208 199 196 199 194 184 180 184
267 269 260 269 267 259 267 262 255 269 275 270 312 316 331 332 324 313 311 330 320 315 333 333 344 344 342 318 284 237 213 199 195 198 204 197 183 186 187 181 178 174 171 179
280 322 300 280 257 210 248 213 252 281 275 308 327 329 318 310 304 296 322 323 317 316 324 337 329 337 335 314 259 206 208 212 214 214 200 189 187 180 176 178 169 168 169 179
286 354 257 257 293 321 279 280 273 279 281 329 318 301 299 298 299 310 320 317 315 310 316 331 325 325 322 300 274 214 219 217 217 204 185 178 179 178 172 166 173 168 177 187
233 210 294 287 201 197 159 280 265 257 310 315 314 306 290 292 294 305 302 304 302 306 312 322 312 321 312 275 241 205 209 211 205 189 168 163 169 169 171 165 169 176 180 183
218 247 257 247 166 135 99 271 104 303 284 300 316 304 295 309 309 301 301 302 308 307 305 310 311 309 289 247 310 198 199 201 188 169 163 166 163 164 167 168 170 174 178 185
245 259 276 284 120 56 245 289 256 305 300 300 287 280 290 300 295 297 298 306 307 303 300 306 302 290 260 235 145 187 203 192 175 163 158 164 165 165 164 166 170 175 183 190
240 244 279 162 108 261 294 298 309 307 303 298 291 293 294 297 297 301 302 304 310 313 312 309 308 276 248 207 145 157 167 175 157 159 161 164 162 164 168 178 182 182 187 187
195 228 234 204 268 297 291 303 312 304 301 296 297 295 295 298 294 294 299 303 308 311 307 323 320 262 222 183 203 215 165 152 154 160 160 164 166 167 177 183 186 185 187 191
304 280 280 302 308 307 305 310 321 301 299 296 294 295 293 292 293 298 302 298 304 311 321 316 337 183 165 173 170 160 162 153 157 163 165 166 174 178 182 185 188 186 188 189
260 280 310 300 303 321 302 308 318 305 298 297 299 295 294 292 292 289 290 294 302 312 312 304 277 268 160 179 179 168 159 163 165 169 170 170 175 182 189 190 187 182 185 178
285 294 294 289 312 329 310 310 311 308 308 305 300 298 299 293 292 292 293 297 301 297 279 290 92 157 165 171 168 166 166 167 169 173 172 175 181 179 182 180 180 177 158 131
284 295 292 301 314 323 310 310 311 309 307 306 306 306 304 301 306 303 291 295 295 175 175 116 126 161 164 165 167 164 159 167 167 171 176 179 180 177 175 179 179 174 171 153
306 306 301 311 319 317 310 309 314 311 311 312 308 307 305 309 303 299 288 280 171 143 215 147 137 151 159 165 166 160 169 166 170 174 177 180 181 180 179 175 172 171 163 154
317 313 311 316 315 320 325 331 323 323 319 322 320 320 320 325 346 300 324 127 158 168 162 130 148 161 166 162 162 163 163 167 170 175 176 179 182 183 183 183 174 160 154 152
309 323 317 327 326 334 338 333 331 328 323 332 326 332 335 348 61 48 285 126 177 181 163 146 159 155 166 162 159 157 162 162 166 167 169 172 176 180 184 180 166 161 158 158
317 334 337 333 342 343 338 339 338 326 327 327 333 341 359 67 81 85 138 121 148 153 144 151 153 161 168 166 160 157 156 153 156 156 158 161 163 167 169 165 163 162 156 160
343 358 348 334 339 342 341 347 340 339 346 325 334 356 54 84 90 93 133 144 136 138 139 135 148 161 166 166 161 158 155 157 162 156 158 153 156 164 168 168 168 164 159 160
353 2 359 347 353 357 351 347 350 349 355 358 11 25 47 84 96 100 132 148 132 129 122 132 152 159 165 165 168 167 162 155 151 156 161 151 152 162 170 171 169 162 158 158
357 4 7 8 3 6 3 4 10 12 18 29 42 50 67 91 102 97 102 126 123 115 117 127 153 163 170 169 178 169 163 163 153 145 146 151 150 157 166 170 162 158 159 163
349 3 9 16 17 11 12 12 16 23 28 45 63 74 81 79 92 99 102 108 94 119 143 149 153 166 170 176 173 181 170 158 155 151 144 149 148 150 156 155 157 161 161 164
339 4 11 15 18 16 22 25 35 43 49 60 74 86 90 86 83 87 103 88 87 130 166 176 174 171 168 174 168 164 172 173 163 159 157 159 158 155 158 163 161 161 165 169
317 349 15 22 23 24 32 39 49 54 54 50 66 75 75 76 81 87 100 96 108 108 120 125 138 160 161 173 176 171 174 180 176 172 169 171 173 171 171 168 166 164 165 168
349 340 13 24 30 30 31 37 48 55 61 61 64 71 80 76 81 88 97 103 99 109 116 117 127 155 159 158 161 168 171 177 172 170 171 173 175 174 173 174 173 170 169 170
32 30 20 22 32 35 34 43 53 55 57 63 65 68 75 84 87 90 94 102 117 115 101 100 113 137 156 155 156 156 161 166 170 171 173 173 168 168 170 173 176 173 172 170
28 19 26 29 36 41 38 46 55 53 53 56 60 62 62 70 80 87 92 93 93 95 97 100 106 118 131 140 145 149 156 158 158 161 166 165 166 167 168 166 168 168 164 164
42 36 22 30 35 45 49 51 55 56 54 52 59 64 67 73 78 85 91 92 90 87 88 92 95 96 103 112 122 132 139 145 151 156 159 158 159 161 159 157 155 151 147 143